Regional Weather Roundup
Issued by NWS

Home | Current Version | Previous Version | Text Only | Print | Product List | Glossary On
Versions: 1 2 3 4 5 6 7 8 9 10 11 12 13 14 15 16 17 18 19 20 21 22 23 24 25 26 27 28 29 30 31 32 33 34 35 36 37 38 39 40 41 42 43 44 45 46 47 48 49 50
466
ASUS43 KLSX 230457
RWRMO

WEATHER SUMMARY FOR MISSOURI
NATIONAL WEATHER SERVICE SPRINGFIELD MO
1100 PM CST THU FEB 22 2018

NOTE: "FAIR" INDICATES FEW OR NO CLOUDS BELOW 12,000 FEET WITH NO
       SIGNIFICANT WEATHER AND/OR OBSTRUCTIONS TO VISIBILITY.
       CURRENT SKY AND/OR WEATHER CONDITIONS ARE NOT AVAILABLE FOR
       CHILLICOTHE AND FARMINGTON.

MOZ001>031-035>038-043-044-053-054-230600-
...NORTHERN AND WESTERN MISSOURI...

CITY           SKY/WX    TMP DP  RH WIND       PRES   REMARKS
KANSAS CTY INT FRZ DRZL  32  32 100 CALM      30.18S VSB 1/2
KANSAS C DTWN  CLOUDY    34  32  93 W3        30.19F FOG
LEE`S SUMMIT   CLOUDY    33  33 100 W5        30.19R FOG     WCI  29
ST JOSEPH      CLOUDY    32  32 100 CALM      30.20F FOG
CHILLICOTHE      N/A     34  33  96 W3        30.17F

$$
MOZ066>068-077>081-088>096-101>105-230600-
...SOUTHWEST MISSOURI...

CITY           SKY/WX    TMP DP  RH WIND       PRES   REMARKS
SPRINGFIELD    LGT RAIN  43  42  97 S10       30.17R FOG
JOPLIN         CLOUDY    41  41 100 W8        30.20R FOG

$$
MOZ032>034-039>042-045>050-055>058-069>072-230600-
...CENTRAL MISSOURI...

CITY           SKY/WX    TMP DP  RH WIND       PRES   REMARKS
COLUMBIA       NOT AVBL
JEFFERSON CITY CLOUDY    41  40  96 SE6       30.15F
ROLLA          CLOUDY    41  41 100 SE8       30.14F
SEDALIA        LGT RAIN  40  40 100 W7        30.18R FOG
WARRENSBURG    DRIZZLE   36  36 100 W5        30.18R

$$
MOZ051-052-059>065-230600-
...EAST CENTRAL MISSOURI...

CITY           SKY/WX    TMP DP  RH WIND       PRES   REMARKS
ST LOUIS INTL  CLOUDY    44  44 100 E12       30.18F

$$
MOZ072>076-082>087-097>100-106>115-230600-
...SOUTH CENTRAL AND SOUTHEAST MISSOURI...

CITY           SKY/WX    TMP DP  RH WIND       PRES   REMARKS
CAPE GIRARDEAU RAIN      50  48  93 SE10      30.21F FOG
POPLAR BLUFF   LGT RAIN  47  47 100 CALM      30.26R FOG
WEST PLAINS    LGT RAIN  43  42  97 SE8       30.20R

$$



USA.gov is the U.S. government's official web portal to all federal, state and local government web resources and services.